www.pogodaiklimat.ru

Погода и климат >> Архив погоды >> Гондурас >> Choluteca


ПОГОДА в Choluteca

  • Прогноз погоды в Choluteca
  • Монитор погоды в Choluteca
  • Климат города

АРХИВ ПОГОДЫ в Choluteca

Время (UTC), дата Ветер
(напр.,м/с)
 
Видим.   Явления Облачность Т
(С)
Тd
(С)
f
(%)
Тe
(С)
Тes
(С)
Комфортность P
(гПа)
Po
(гПа)
Тmin
(С)
Tmax
(С)
R
(мм)
R24
(мм)
S
(см)
12 16.06 штиль 0 5000 м слабая морось 10/8 180 м
[Frnb As op]
+24.0 +24.0 100 +33 +33 очень
душно
1011.4 1005.7 +24.0 +31.8 10
15 16.06 штиль 0 15 км мгла {морось, туман} 9/8 270 м
[St As op]
+26.0 +24.2 90 +36 +38 очень
душно
1012.4 1006.7 0.0
18 16.06 Ю 5 15 км мгла {морось, туман} 8/8 900 м
[Cu med, cong]
+31.4 +25.8 72 +46 +49 опасность
перегрева
1010.7 1005.0 +24.0 +31.4 0.9
21 16.06 ЮЗ 1 28 км мгла {туман} 9/6 1020 м
[Cb cap Ac trans Ci sp]
+32.8 +26.1 68 +49 +52 опасность
перегрева
1009.5 1003.8
00 17.06 штиль 0 15 км мгла {туман} 9/6 960 м
[Cb cap Ac As]
+29.1 +25.1 79 +42 +42 опасность
перегрева
1010.2 1004.5 +24.0 +32.6
12 17.06 штиль 0 15 км 9/4 120 м
[Cu med, cong Ac As]
+23.6 +23.2 98 +32 +32 очень
душно
1010.5 1005.5 +23.6 +32.6 67
15 17.06 штиль 0 10 км слабый дождь {морось} 9/3 120 м
[Sc As op]
+26.2 +25.4 95 +38 +42 очень
душно
1010.6 1004.9 0.0
18 17.06 штиль 0 10 км в посл. час морось {дождь} 9/6 180 м
[Cu med, cong Ac As]
+27.2 +25.3 89 +39 +45 очень
душно
1008.5 1002.8 +23.6 +27.2 2
21 17.06 ЮЗ 1 20 км в посл. час морось {дождь} 9/6 840 м
[Cb cap Ac trans]
+29.0 +25.1 80 +42 +45 опасность
перегрева
1009.3 1007.6 0.1
00 18.06 штиль 0 10 км в посл. час дождь {морось} 9/6 900 м
[Cb cap Ac As]
+27.0 +24.8 88 +39 +39 очень
душно
1010.5 1004.8 +23.6 +29.0 0.3
12 18.06 штиль 0 4000 м слабая морось 10/4 840 м
[Sc As op]
+24.0 +24.0 100 +33 +33 очень
душно
1008.7 1003.0 +24.0 +29.0 0.8
15 18.06 штиль 0 5000 м в посл. час морось {туман} 9/8 180 м
[Frnb As op]
+24.4 +23.9 97 +33 +35 очень
душно
1009.7 1004.0 2
18 18.06 штиль 0 10 км мгла {морось, туман} 9/6 900 м
[Cu med, cong Ci fib]
+29.0 +25.3 80 +42 +52 опасность
перегрева
1008.5 1002.8 +24.0 +29.0 0.8
21 18.06 Ю 3 4000 м слабая морось {туман} 10/6 900 м
[Cb cap As op]
+27.0 +25.3 90 +39 +40 очень
душно
1007.7 1002.0 0.0
00 19.06 штиль 0 15 км в посл. час дождь {морось} 9/8 200 м
[Cu med, cong As op]
+25.0 +24.2 95 +34 +34 очень
душно
1008.9 1003.2 +24.0 +30.2 7
12 19.06 штиль 0 2000 м слабый дождь 10/3 840 м
[Sc As op]
+24.0 +23.4 96 +32 +32 очень
душно
1008.7 1003.0 +24.0 +30.2 4
15 19.06 СВ 1 15 км в посл. час дождь {морось} 9/6 180 м
[Frnb Ac As]
+26.5 +24.7 90 +38 +40 очень
душно
1009.3 1003.6 1
18 19.06 штиль 0 15 км в посл. час дождь {морось} 9/6 180 м
[Frnb Ac As]
+25.6 +24.4 93 +36 +41 очень
душно
1010.2 1004.5 +24.0 +26.5 27
21 19.06 Ю 2 15 км осадки на расстоянии {туман} 9/5 900 м
[Cu med, cong Ac As]
+27.2 +24.9 87 +39 +41 очень
душно
1007.5 1001.8
12 20.06 штиль 0 14 км дымка 10/4 900 м
[Sc As op]
+23.8 +23.8 100 +32 +32 очень
душно
1009.4 1003.7 +23.8 +27.6 13
15 20.06 штиль 0 7000 м осадки на расстоянии {туман} 10/4 900 м
[Sc As op]
+26.4 +24.1 87 +37 +39 очень
душно
1010.4 1004.7
18 20.06 З 2 15 км мгла {морось, туман} 10/8 270 м
[Frnb As op]
+27.6 +24.6 84 +39 +40 очень
душно
1009.4 1003.7 +23.8 +27.6 0.4
21 20.06 З 2 20 км мгла {туман} 9/5 900 м
[Cu med, cong Cs]
+31.2 +25.0 70 +45 +49 опасность
перегрева
1007.2 1001.5
00 21.06 штиль 0 20 км мгла {туман} 9/8 840 м
[Cu med, cong As op]
+29.0 +25.3 80 +42 +42 опасность
перегрева
1008.7 1003.0 +23.8 +30.2
12 21.06 штиль 0 20 км дымка 9/1 900 м
[Sc Ac trans Cs]
+23.8 +22.8 94 +31 +32 очень
душно
1010.3 1004.6 +23.8 +30.2
15 21.06 СВ 2 25 км мгла {туман} 9/3 180 м
[Cu med, cong Ac cuf]
+27.0 +24.4 86 +38 +41 очень
душно
1011.0 1005.3
18 21.06 СВ 2 25 км мгла {туман} 9/4 960 м
[Cu med, cong Ac As]
+30.2 +24.1 70 +42 +47 опасность
перегрева
1010.4 1004.7 +23.8 +30.9
21 21.06 ЮЗ 2 15 км мгла {туман} 9/4 1020 м
[Cu med, cong Ac As]
+32.6 +26.3 70 +49 +52 опасность
перегрева
1008.5 1002.8
00 22.06 В 2 12 км гроза без осадков {морось} 9/4 900 м
[Cb cap As op]
+26.0 +23.7 87 +35 +35 очень
душно
1009.5 1003.8 +23.8 +35.6 0.0
12 22.06 штиль 0 4000 м дымка 8/5 180 м
[Cu med, cong As op Cs]
+23.0 +23.0 100 +32 +32 очень
душно
1011.0 1005.3 +23.0 +32.6 28
15 22.06 штиль 0 20 км мгла {туман} 9/4 900 м
[Cb cap Ac trans Ci fib]
+28.8 +25.2 81 +42 +48 опасность
перегрева
1012.2 1006.5
18 22.06 Ю 6 4000 м осадки на расстоянии {туман} 9/6 900 м
[Cb cap As op]
+28.4 +25.6 85 +42 +43 опасность
перегрева
1010.7 1005.0 +23.0 +31.0
21 22.06 штиль 0 7000 м в посл. час дождь {морось} 10/6 180 м
[Frnb As op]
+23.8 +23.8 100 +32 +33 очень
душно
1009.2 1003.5 10
00 23.06 С 3 20 км мгла {дождь, морось} 10/3 900 м
[Sc As op]
+25.4 +23.6 90 +35 +35 очень
душно
1010.2 1004.5 +23.0 +31.0 10

 

Местоположение метеостанции Choluteca (Гондурас): широта 13.30 долгота -87.18 высота над уровнем моря 48 м.

В архиве по умолчанию представлена погода в Choluteca за последнюю неделю. Архивные данные за месяц целиком и за предыдущие месяцы, начиная с января 2011 года, Вы можете получить, выбрав интересующий диапазон дат из раскрывающегося списка и нажав кнопку "Ввод!".

Внимание! Время в таблицах - всемирное. Для получения местного времени необходимо прибавить поправку, которая в Choluteca равна -6 ч.

Смотрите также архив погоды в соседних городах и на ближайших метеорологических станциях:

Погода в Amapala (Гондурас) (51 км)
Погода в Chinandega (Никарагуа) (75 км)
Погода в Tegucigalpa (Гондурас) (83 км)
Погода в Jinotega (Никарагуа) (132 км)
Погода в La Esperanza (Гондурас) (155 км)
Погода в Managua (Никарагуа) (168 км)
Погода в Yoro (Гондурас) (208 км)
Погода в Catacamas (Гондурас) (223 км)
Погода в Juigalpa (Никарагуа) (237 км)
Погода в Santa Rosa De Copan (Гондурас) (239 км)

Пояснения к столбцам:

Ветер - указаны скорость ветра в м/с - средняя за 10 мин, порывы в срок и между сроками (в фигурных скобках) и направление, откуда дует ветер: С - северный, СВ - северо-восточный, В - восточный, ЮВ - юго-восточный, Ю - южный, ЮЗ - юго-западный, З - западный, СЗ - северо-западный.
Видимость - горизонтальная дальность видимости в метрах или километрах. При видимости от 1 до 10 км при отсутствии осадков обычно наблюдается дымка, при ухудшении видимости до 1 км и менее - туман. В сухую погоду видимость может ухудшаться дымом, пылью или мглою.
Явления - указаны атмосферные явления, наблюдавшиеся в срок или в последний час перед сроком; фигурными скобками обозначены явления, наблюдавшиеся между сроками (за 1-3 часа до срока); квадратными скобками обозначены град или гололедные отложения с указанием их диаметра в мм.
Облачность - указаны через наклонную черту общая и нижняя облачность в баллах и высота нижней границы облаков в метрах; квадратными скобками обозначены формы облаков: Ci - перистые, Cs - перисто-слоистые, Cc - перисто-кучевые, Ac - высококучевые, As - высокослоистые, Sc - слоисто-кучевые, Ns - слоисто-дождевые, Cu - кучевые, Cb - кучево-дождевые. Подробнее классификацию облаков см. в Атласе облаков (PDF).
T - Температура воздуха - температура, измеренная на высоте 2 м над землей.
Td - Температура точки росы - температура, при понижении до которой содержащийся в воздухе водяной пар достигнет насыщения.
f - Относительная влажность воздуха - влажноcть воздуха, измеренная на высоте 2 м над землей.
Te - Эффективная температура - температура, которую ощущает одетый по сезону человек в тени. Характеристика душности погоды. При расчете учитывается влияние влажности воздуха и скорости ветра на теплоощущения человека.
Tes - Эффективная температура на солнце - температура, которую ощущает человек, с поправкой на солнечный нагрев. Характеристика знойности погоды. Зависит от высоты солнца над горизонтом, облачности и скорости ветра. Ночью, в пасмурную погоду, а также при ветре 12 м/с и более поправка равна нулю.
P - Атмосферное давление - приведенное к уровню моря атмосферное давление.
Po - Атмосферное давление - измеренное на уровне метеостанции атмосферное давление.
Tmin - Минимальная температура - минимум температуры воздуха на высоте 2 м над землей.
Tmax - Максимальная температура - максимум температуры воздуха на высоте 2 м над землей.
R - Количество осадков - Количество выпавших осадков за период времени, мм. При наведении курсора мыши на число - период времени, за который выпало указанное количество осадков.
R24 - Количество осадков - Количество выпавших осадков за 24 часа, мм.
S - Снежный покров - Высота снежного покрова, см. При наведении курсора мыши на число - состояние снежного покрова и степень покрытия местности в баллах.